Content
SEND FEEDBACK

Daily
Averages
Monthly
Summary
Switzerland

ZÜRICH, SWITZERLAND


Home > Europe > Switzerland
Elevation: 1867 feet     Latitude: 47 23N     Longitude: 008 34E

WEATHER
 
SELECT A DAY
Number of Records: 290,687;   Date Range: 7/1/96 - 12/16/14
 
SHARE

PRINT THIS DATA

[ ← Previous Day ]
WEATHER ALMANAC - MARCH 19, 2013
[ Next Day → ]
[ °C ]   °F
Weather ElementAverageHighLow
Temperature41 °F49 °F (2:00 pm)35 °F (11:00 pm)
Dewpoint30.6 °F34 °F (2:00 am)24.8 °F (3:50 pm)
Humidity65.7 %87 % (12:20 am)31 % (5:00 pm)
Barometer29.58 in29.68 in (11:00 pm)29.42 in (12:20 am)
Wind Speed10 mph17.3 mph (11:20 am)
Wind Gust21.9 mph (10:20 am)
Weather ElementAverage
Visibility7.8 mi
Wind DirectionSSW (206.7 °)

Weather ElementTotal
Precipitation---
Heating Degree Days23 (Base 65)
Averaged from 66 records on March 19, 2013
WEATHER CONDITIONS BREAKOUT
WIND DIRECTION BREAKOUT
WEATHER BY HOUR - MARCH 19, 2013
[ °C ]   °F
Local TimeTemperatureDewpointHumidityBarometerVisibilityWind DirectionWind SpeedGust SpeedPrecipitationEventsConditions
12:20 AM37.4 °F33.8 °F87 %29.42 in4.3 miSW (220°)12.7 mphRainLight Rain Showers
12:50 AM37.4 °F33.8 °F87 %29.42 in6.2 miSSW (200°)6.9 mphLight Drizzle
1:20 AM37.4 °F33.8 °F87 %29.44 in6.2 miSW (220°)9.2 mphRainLight Rain Showers
1:50 AM37.4 °F33.8 °F87 %29.44 in6.2 miSSW (210°)12.7 mphRainLight Rain Showers
2:00 AM38.0 °F34.0 °F78 %29.49 inSW (230°)11.5 mph
2:20 AM39.2 °F33.8 °F81 %29.44 in6.2 miSW (220°)12.7 mphRainLight Rain Showers
2:50 AM37.4 °F32.0 °F81 %29.44 in6.2 miSW (220°)11.5 mphMostly Cloudy
3:00 AM38.0 °F33.0 °F74 %29.51 inWSW (240°)10.4 mph
3:20 AM37.4 °F33.8 °F87 %29.44 in6.2 miSSW (210°)12.7 mphRainLight Rain Showers
3:50 AM37.4 °F33.8 °F87 %29.47 in6.2 miSW (220°)13.8 mphRainLight Rain Showers
4:20 AM37.4 °F33.8 °F87 %29.47 in6.2 miSW (230°)10.4 mphRainLight Rain Showers
4:50 AM37.4 °F33.8 °F87 %29.50 in6.2 miSSW (210°)6.9 mphRainLight Rain Showers
5:00 AM37.0 °F34.0 °F83 %29.56 inSW (230°)11.5 mph
5:20 AM35.6 °F32.0 °F87 %29.50 in4.3 miSW (220°)11.5 mphRainLight Rain Showers
5:50 AM35.6 °F32.0 °F87 %29.53 in4.3 miSSW (210°)8.1 mphRainLight Rain Showers
6:00 AM37.0 °F33.0 °F79 %29.59 inSW (230°)11.5 mph
6:20 AM37.4 °F32.0 °F81 %29.53 in4.3 miSSW (210°)10.4 mphRainLight Rain Showers
6:50 AM37.4 °F32.0 °F81 %29.56 in6.2 miSSW (210°)11.5 mphRainLight Rain Showers
7:00 AM37.0 °F33.0 °F78 %29.62 in12.0 miSW (230°)12.7 mphRainLight Rain Showers
7:20 AM35.6 °F32.0 °F87 %29.56 in6.2 miSW (220°)11.5 mphRainLight Rain Showers
7:50 AM37.4 °F33.8 °F87 %29.59 in6.2 miSW (230°)8.1 mphMostly Cloudy
8:00 AM38.0 °F33.0 °F77 %29.64 inWSW (240°)9.2 mph
8:20 AM37.4 °F33.8 °F87 %29.59 in6.2 miSSW (210°)9.2 mphScattered Clouds
8:50 AM39.2 °F33.8 °F81 %29.59 in6.2 miSSW (210°)11.5 mphScattered Clouds
9:00 AM40.0 °F34.0 °F70 %29.66 inSW (230°)9.2 mph
9:20 AM41.0 °F32.0 °F70 %29.62 in6.2 miSSW (210°)8.1 mphScattered Clouds
9:50 AM42.8 °F32.0 °F66 %29.62 in6.2 miSSW (210°)10.4 mphScattered Clouds
10:20 AM41.0 °F32.0 °F70 %29.62 in6.2 miSSW (210°)10.4 mph21.9 mphScattered Clouds
10:50 AM44.6 °F32.0 °F61 %29.62 in6.2 miSSW (210°)12.7 mphMostly Cloudy
11:00 AM43.0 °F31.0 °F51 %29.66 inSW (230°)13.8 mph
11:20 AM44.6 °F33.8 °F66 %29.62 in6.2 miSSW (210°)17.3 mphMostly Cloudy
11:50 AM42.8 °F33.8 °F70 %29.62 in6.2 miSW (220°)16.1 mphPartly Cloudy
12:00 PM44.0 °F33.0 °F54 %29.67 inSW (220°)12.7 mph
12:20 PM44.6 °F33.8 °F66 %29.62 in6.2 miSW (230°)13.8 mphPartly Cloudy
12:50 PM46.4 °F32.0 °F57 %29.62 in6.2 miSSW (210°)16.1 mphScattered Clouds
1:00 PM47.0 °F31.0 °F42 %29.65 in31.0 miWSW (240°)12.7 mphPartly Cloudy
1:20 PM46.4 °F32.0 °F57 %29.62 in6.2 miSW (220°)13.8 mphPartly Cloudy
1:50 PM48.2 °F32.0 °F54 %29.62 in6.2 miSSW (210°)16.1 mphScattered Clouds
2:00 PM49.0 °F31.0 °F38 %29.63 inWSW (250°)11.5 mph
2:20 PM48.2 °F30.2 °F50 %29.62 in6.2 miSW (220°)16.1 mphScattered Clouds
2:50 PM48.2 °F30.2 °F50 %29.59 in6.2 miSSW (210°)12.7 mphScattered Clouds
3:00 PM48.0 °F30.0 °F36 %29.63 inSW (230°)12.7 mph
3:20 PM48.2 °F26.6 °F43 %29.59 in6.2 miSW (230°)15.0 mphScattered Clouds
3:50 PM48.2 °F24.8 °F40 %29.59 in6.2 miSW (230°)16.1 mphScattered Clouds
4:20 PM48.2 °F26.6 °F43 %29.59 in6.2 miSW (220°)15.0 mphScattered Clouds
4:50 PM48.2 °F26.6 °F43 %29.59 in6.2 miWSW (240°)11.5 mphPartly Cloudy
5:00 PM47.0 °F26.0 °F31 %29.61 inSW (230°)11.5 mph
5:20 PM48.2 °F24.8 °F40 %29.59 in6.2 miSW (220°)11.5 mphScattered Clouds
5:50 PM46.4 °F26.6 °F46 %29.59 in6.2 miSW (230°)6.9 mphScattered Clouds
6:00 PM46.0 °F26.0 °F33 %29.62 inWSW (240°)5.8 mph
6:20 PM44.6 °F26.6 °F49 %29.59 in6.2 miSW (230°)5.8 mphScattered Clouds
6:50 PM44.6 °F26.6 °F49 %29.59 in6.2 miSSW (210°)3.5 mphScattered Clouds
7:00 PM44.0 °F26.0 °F36 %29.63 in47.0 miSW (220°)3.5 mphScattered Clouds
7:20 PM41.0 °F26.6 °F57 %29.59 inSSW (210°)3.5 mphClear
7:50 PM39.2 °F26.6 °F61 %29.59 inWSW (240°)4.6 mphClear
8:00 PM39.0 °F28.0 °F52 %29.65 inWSW (240°)3.5 mph
8:20 PM41.0 °F26.6 °F57 %29.59 inVariable2.3 mphClear
8:50 PM37.4 °F28.4 °F70 %29.59 inESE (110°)3.5 mphClear
9:00 PM38.0 °F28.0 °F57 %29.66 inESE (110°)4.6 mph
9:20 PM37.4 °F28.4 °F70 %29.62 inSE (140°)3.5 mphClear
9:50 PM35.6 °F26.6 °F70 %29.62 inSE (130°)4.6 mphClear
10:20 PM35.6 °F26.6 °F70 %29.62 inSE (140°)4.6 mphClear
10:50 PM35.6 °F26.6 °F70 %29.62 inSE (140°)5.8 mphClear
11:00 PM35.0 °F27.0 °F64 %29.68 inSSE (150°)6.9 mph
11:20 PM35.6 °F28.4 °F75 %29.62 inESE (120°)5.8 mphClear
11:50 PM35.6 °F28.4 °F75 %29.62 inSSE (160°)5.8 mphClear
Hourly data recorded from LSMD, located miles away from Zürich, Switzerland







STORIES FROM OUR PARTNERS